Wind_Speed
7 9 11 13 13 13 13 14 15 16 16 17 19 19 18 17 16 16 16 14 14 12 11 10 10 9 9 9 8 9 12 11 11 12 13 14 14 14 12 11 13 14 12 10 9 8 8 7 6 6 6 6 7 8 7 7 5 4 3 3 3 3 3 2 3 4 6 6 6 8 10 11 13 12 12 12 11 10 10 12 13 13 14 14 14
7 9 10 13 13 12 12 12 14 16 17 17 19 19 18 18 18 17 16 16 16 14 12 13 12 10 10 10 10 10 12 13 14 14 14 13 13 13 14 15 15 12 10 9 9 8 7 6 6 6 6 6 6 6 6 7 6 4 4 3 2 3 2 2 2 3 4 4 5 5 6 9 11 11 12 12 12 10 10 11 12 13 13 14 14
8 9 10 12 13 12 12 12 14 16 16 16 17 18 17 17 18 17 16 17 16 15 15 15 13 12 11 10 10 10 11 14 14 14 14 13 13 13 14 13 11 9 8 8 8 8 7 6 6 6 6 5 3 4 5 6 5 3 3 3 2 2 2 2 3 3 3 4 5 4 3 5 6 8 10 12 11 10 10 11 12 13 13 13 14
9 8 9 10 12 13 12 13 14 15 14 15 16 17 17 17 16 16 17 18 16 15 17 16 13 12 10 9 10 10 10 12 12 12 13 13 13 13 11 10 9 8 8 8 8 8 8 7 7 6 5 3 2 2 3 4 4 3 2 1 1 2 2 1 2 3 4 4 3 3 2 2 2 4 6 7 8 9 10 11 12 12 12 13 14
9 8 8 10 11 12 12 12 13 14 14 14 16 17 18 17 15 15 15 16 15 15 17 16 14 13 10 7 8 8 8 9 9 9 12 13 12 10 8 9 10 9 8 8 8 9 8 7 6 5 4 3 2 2 1 2 3 2 1 3 2 1 1 1 1 2 3 3 3 3 2 1 1 2 4 3 5 7 9 11 12 12 11 12 14
9 8 8 9 10 11 11 12 12 12 13 13 13 14 16 15 14 14 13 14 15 16 18 18 16 16 13 8 7 8 8 8 7 6 8 10 9 8 9 9 10 9 8 8 8 8 8 6 5 4 4 3 3 3 2 2 2 1 1 3 2 2 2 2 1 2 2 2 4 4 3 2 2 1 2 2 4 6 8 9 11 11 11 12 14
9 8 8 9 10 11 11 11 10 10 11 12 12 12 13 13 13 12 11 13 15 16 17 17 16 16 14 11 10 11 9 8 7 6 6 7 8 8 10 10 10 9 7 7 8 8 7 5 5 5 5 5 4 3 2 2 1 1 1 2 3 2 3 4 2 0 1 2 3 3 4 5 5 5 3 2 3 5 8 10 10 10 10 11 12
8 8 9 9 10 10 10 9 7 7 9 11 11 11 11 11 11 10 10 12 14 15 16 15 14 15 16 14 13 12 10 7 8 8 7 7 8 9 11 11 9 7 6 8 9 8 6 5 6 6 6 4 3 3 2 2 1 1 1 2 2 2 3 5 5 4 2 2 2 2 3 4 5 6 6 6 4 3 5 7 8 9 11 11 11
8 8 8 9 9 9 8 7 6 5 7 9 8 8 8 8 9 9 9 11 13 14 15 14 13 14 16 14 11 9 8 7 7 6 5 6 8 9 11 11 8 6 7 9 8 7 6 6 7 7 5 3 3 2 2 2 1 1 2 2 3 3 4 4 5 6 5 3 3 3 3 4 5 5 6 6 6 5 4 4 6 8 9 11 11
8 7 8 8 9 9 6 6 7 6 6 7 6 5 6 7 8 8 8 9 12 14 14 14 12 12 13 11 9 7 6 5 5 5 5 6 8 8 9 9 9 7 8 8 7 6 6 6 7 6 4 2 2 2 2 3 2 2 3 3 4 4 5 5 5 6 6 5 5 4 5 6 5 5 6 7 7 7 6 4 6 7 6 9 11
7 7 8 10 10 9 7 7 8 7 7 8 6 4 5 7 8 8 6 7 10 13 14 12 10 9 9 8 6 5 5 5 4 5 5 6 7 7 6 7 9 8 7 7 6 6 7 7 6 4 3 2 2 3 3 4 4 4 5 5 4 4 6 6 6 6 6 6 7 6 7 8 6 6 6 7 7 7 6 6 6 6 6 8 10
8 7 9 11 10 10 10 9 9 8 8 8 8 6 6 7 8 8 7 7 9 12 12 10 7 6 5 5 4 4 3 3 3 4 5 5 5 3 4 6 7 7 6 6 7 7 7 6 5 4 4 3 3 3 4 4 6 6 6 6 5 5 6 6 6 6 6 6 7 7 8 8 8 7 7 7 7 8 7 7 7 7 7 8 9
8 8 9 9 9 10 10 9 9 9 9 9 9 7 7 8 9 8 9 8 8 10 9 8 7 6 4 4 4 3 3 3 3 4 4 4 4 4 4 5 4 5 5 5 6 7 6 5 4 5 4 3 3 3 3 4 5 6 6 7 6 5 6 6 6 7 6 7 7 7 8 8 8 7 7 8 8 8 7 7 9 9 8 9 10
8 8 9 9 9 10 10 9 9 8 9 9 9 8 8 8 9 9 9 8 8 7 7 8 7 5 4 4 4 4 4 4 3 3 3 5 6 6 5 4 3 3 3 3 4 4 4 4 4 4 4 3 3 3 3 3 4 6 6 7 7 6 6 7 7 7 7 7 8 8 8 8 8 7 7 8 9 8 9 8 8 9 10 10 10
8 8 8 9 10 11 10 9 8 9 9 10 10 9 9 10 11 10 9 9 9 8 7 7 6 4 5 6 5 5 5 5 4 4 5 6 6 4 3 2 2 2 3 3 3 2 2 1 2 2 1 2 2 2 4 3 3 6 6 6 6 5 6 7 7 7 7 7 8 8 9 9 9 8 8 8 8 8 9 10 8 7 8 9 9
8 8 8 10 11 12 11 10 9 9 10 10 10 10 10 11 12 11 9 8 8 8 8 7 6 6 6 6 5 5 5 4 5 6 6 6 4 3 2 2 1 1 2 3 2 1 0 0 1 1 0 2 2 2 4 4 4 6 6 5 6 5 5 7 7 7 6 6 7 7 8 9 9 8 9 9 8 8 9 10 9 8 7 7 7
8 8 8 10 11 11 10 9 9 10 9 10 10 9 10 11 13 13 11 11 9 8 8 7 8 8 7 6 5 6 7 7 8 8 6 4 2 2 2 1 1 2 2 2 2 1 1 1 2 1 1 2 3 3 4 4 5 7 6 5 7 6 6 7 7 7 7 7 8 7 8 9 8 8 9 9 8 8 9 10 10 10 9 7 7
9 9 9 10 11 11 10 9 9 10 10 10 9 9 9 10 12 12 11 12 10 10 11 9 9 10 9 9 9 9 10 10 9 7 4 4 3 3 2 2 3 3 2 2 1 1 0 1 3 3 2 3 4 4 5 5 6 8 7 7 8 6 6 8 7 8 8 8 9 9 10 10 10 9 9 9 9 9 11 11 11 11 10 9 8
9 10 9 9 10 11 11 10 10 10 10 10 10 9 9 10 11 11 10 11 10 10 12 11 10 11 11 12 12 12 11 9 7 5 4 4 4 3 4 4 4 4 3 1 1 1 2 2 2 3 3 4 5 5 6 7 8 9 9 9 7 5 6 9 9 9 9 9 9 10 11 11 11 10 10 10 10 11 11 11 11 12 11 11 11
9 9 9 9 10 11 11 11 11 11 10 11 10 10 10 11 12 12 11 11 10 9 11 10 10 12 12 13 13 11 10 8 6 5 4 4 4 4 5 4 4 3 2 1 1 2 3 4 4 4 4 5 6 7 8 9 9 9 9 10 9 7 8 9 10 10 9 10 11 11 12 12 12 12 12 12 13 12 12 12 12 12 12 12 12
9 9 9 10 11 11 12 12 12 11 10 11 11 10 11 11 13 14 13 13 12 11 11 11 12 13 13 13 11 9 8 6 6 5 4 4 4 3 4 4 3 2 1 1 2 2 2 3 4 5 6 7 7 9 10 10 10 9 9 10 10 9 9 10 10 10 10 10 11 11 12 13 13 13 14 14 14 14 13 14 13 13 14 13 12
10 10 9 10 11 12 13 13 12 12 11 11 10 10 11 11 12 13 12 12 13 13 13 13 13 13 11 10 9 8 6 5 5 4 4 5 4 4 3 3 2 1 1 2 3 3 3 3 5 6 7 8 8 8 9 9 9 10 10 10 10 9 10 10 11 10 10 11 11 11 13 13 13 13 14 15 15 15 15 15 15 14 15 16 14
10 10 9 9 11 12 13 13 13 12 11 11 10 10 10 11 11 11 11 12 13 14 14 13 12 11 9 8 8 7 6 5 5 4 4 4 4 4 3 3 2 2 2 2 3 4 4 5 6 6 7 7 8 8 8 8 9 10 10 10 10 11 11 11 11 11 11 11 11 12 13 13 13 13 13 14 15 15 15 15 16 16 16 17 17
10 9 9 9 11 11 12 13 12 11 11 11 11 10 10 11 10 11 12 13 13 13 13 11 10 10 9 8 8 6 6 5 5 5 4 3 4 4 3 2 2 2 2 2 3 4 5 5 6 6 6 7 7 8 8 9 9 9 10 10 10 11 11 11 12 12 12 11 11 12 13 12 13 13 13 14 15 15 15 16 16 16 16 17 18
11 10 10 10 10 10 11 11 11 11 11 11 11 11 10 10 11 12 13 13 12 12 11 11 10 10 9 8 7 7 6 6 5 5 4 4 3 3 2 2 2 3 3 4 3 3 4 5 6 6 6 7 8 8 8 8 9 9 9 10 10 10 11 12 12 12 12 12 12 13 13 13 13 13 14 14 15 15 16 16 17 17 17 18 17
11 11 10 10 9 10 11 11 11 11 11 11 10 10 10 10 11 12 12 12 11 11 11 11 10 9 9 8 7 6 6 5 4 4 4 4 3 2 2 2 2 3 3 3 3 3 5 6 7 7 7 7 7 7 8 8 8 9 9 10 10 11 11 12 12 12 12 12 13 13 13 13 13 14 14 14 14 15 16 16 17 17 17 18 18
11 11 10 10 10 11 12 11 11 12 12 10 10 11 11 10 11 11 12 11 10 11 11 10 9 9 8 7 6 6 5 5 4 3 4 4 3 2 2 2 2 3 3 3 3 4 5 7 7 7 7 6 6 7 7 7 8 9 9 10 11 11 12 12 12 12 13 13 13 13 14 14 14 14 14 14 14 15 15 16 16 17 17 17 18
11 11 11 11 11 11 12 12 12 13 13 11 11 12 11 11 11 11 11 11 10 11 11 9 9 8 7 6 6 5 5 5 4 4 3 3 3 2 1 1 2 2 3 3 4 5 6 7 7 6 6 6 6 6 6 7 8 9 9 10 11 11 12 12 12 12 12 12 12 13 13 13 13 12 12 13 14 14 15 16 16 16 17 17 18
13 13 12 12 12 11 12 14 14 14 14 13 13 13 12 12 12 11 11 10 10 11 10 9 8 7 6 6 5 5 5 5 4 3 3 3 3 2 1 1 2 2 2 3 5 6 6 6 6 6 6 5 5 5 7 8 9 9 10 11 11 11 11 12 12 12 12 12 12 12 13 12 12 13 13 13 13 13 14 16 16 16 17 18 18
14 14 13 12 12 12 13 15 16 15 15 14 14 14 13 13 12 12 11 11 11 10 10 9 8 7 6 6 6 5 5 5 5 4 3 3 2 1 0 1 2 2 2 4 6 6 5 5 5 5 5 5 5 5 7 9 9 9 10 11 11 12 12 12 13 13 13 13 13 13 13 13 13 13 13 13 13 13 13 14 15 16 17 17 18
14 13 13 12 12 13 14 15 16 16 15 14 14 14 14 13 13 13 12 11 11 10 9 8 7 7 6 6 5 5 5 5 5 4 3 2 2 1 1 1 2 2 3 5 7 5 5 5 4 4 5 6 6 5 8 10 9 10 11 12 13 13 12 13 13 14 14 14 14 14 14 14 13 13 13 13 13 14 14 14 15 16 16 17 18
13 13 13 13 13 13 14 16 16 16 15 14 14 14 14 14 14 13 12 11 11 10 9 8 7 7 6 5 4 4 4 5 4 4 3 3 3 2 1 1 2 3 4 6 6 4 4 4 4 5 6 7 7 7 9 11 10 11 12 12 14 13 12 13 13 14 14 14 14 14 14 14 14 13 13 14 15 15 14 14 15 16 18 18 19
13 13 14 13 13 14 15 16 17 16 15 15 15 14 14 13 13 12 11 11 11 10 9 8 7 6 5 4 4 4 4 5 4 4 3 3 3 3 2 1 4 6 6 6 5 4 4 4 5 7 8 9 10 10 11 12 12 12 13 13 14 13 12 13 13 14 14 14 14 14 14 14 14 14 14 15 15 16 16 16 17 18 18 19 19
12 13 14 13 13 15 16 17 17 16 15 15 14 14 13 12 12 12 11 11 11 10 9 8 7 5 5 4 5 5 5 4 5 4 4 3 3 3 2 4 8 9 6 5 4 4 4 5 7 8 9 11 12 11 11 12 12 12 12 13 14 13 12 13 14 14 15 15 15 15 15 15 15 15 15 16 16 18 19 20 21 21 21 21 20
12 13 13 13 15 17 17 17 17 16 15 15 14 13 12 12 12 12 11 10 10 9 9 8 7 5 5 6 6 6 5 4 4 4 3 3 3 4 5 7 8 6 4 4 4 4 5 6 8 9 11 12 12 10 10 11 11 11 13 14 13 13 13 14 15 15 15 15 16 16 16 16 17 17 17 18 19 20 20 22 24 25 25 24 23
13 13 14 15 17 18 18 18 17 16 15 14 13 12 12 12 12 11 10 9 9 9 9 8 7 6 6 6 6 5 5 4 4 4 4 4 5 6 7 7 6 4 3 4 4 5 6 8 9 10 11 12 11 10 10 11 12 13 14 15 14 14 15 15 16 16 17 17 17 17 17 18 19 20 20 20 21 21 21 22 25 27 27 27 26
14 16 16 17 18 18 18 17 16 16 15 14 13 12 12 12 11 10 10 9 10 9 8 7 7 6 6 5 5 5 5 5 5 5 5 5 6 6 6 6 4 3 3 4 5 7 8 9 9 10 10 11 10 9 10 13 14 15 16 15 14 15 16 16 17 18 18 18 18 19 20 21 22 24 23 22 22 21 21 23 26 27 27 28 27
15 16 16 17 18 17 17 17 16 15 14 13 13 12 12 11 11 10 10 10 10 8 7 7 6 6 5 5 5 5 6 5 5 4 4 5 5 5 3 2 2 2 4 4 6 8 8 8 8 8 9 10 10 9 10 13 15 15 16 15 14 16 17 18 19 19 19 19 20 21 21 22 24 25 23 21 21 20 21 23 25 24 24 25 24
15 16 17 17 17 16 16 16 15 14 13 13 13 13 11 11 10 10 10 9 8 6 6 6 6 5 5 5 5 6 5 4 4 4 4 3 3 1 1 1 1 3 5 6 7 8 8 8 8 8 9 9 9 9 10 13 14 15 16 16 14 16 18 18 19 19 20 21 21 22 22 21 21 21 20 20 22 21 21 23 24 23 23 23 22
16 17 17 17 16 16 15 15 14 14 13 13 13 12 11 10 10 9 9 7 5 5 5 6 6 5 6 6 6 5 4 4 3 3 2 1 2 2 1 0 2 4 6 6 7 7 8 8 8 8 8 9 10 10 10 13 15 15 16 16 14 14 17 18 19 20 21 22 22 23 23 22 21 23 24 25 26 25 24 24 23 24 25 24 23
16 17 17 16 15 15 14 14 13 13 13 13 12 11 10 9 9 8 7 5 5 5 6 6 6 6 6 6 6 5 3 3 3 3 3 3 2 1 1 2 3 4 5 5 6 7 7 8 8 8 8 8 9 9 10 14 17 16 16 17 15 14 16 18 19 21 22 22 23 23 23 22 23 25 27 28 29 29 28 26 23 22 24 25 24
17 17 16 16 15 15 14 13 13 13 13 12 12 11 10 9 8 7 6 6 6 7 7 7 7 7 7 6 5 3 3 4 4 4 3 3 2 2 3 3 3 4 4 5 6 7 7 8 7 7 8 9 9 10 11 15 17 17 17 18 18 17 18 19 19 20 21 22 23 23 22 22 24 26 28 30 29 27 24 22 20 20 22 22 21
17 16 16 16 16 15 15 14 13 13 12 11 12 11 10 9 9 8 8 7 7 7 8 8 8 8 7 6 6 6 5 5 5 4 3 2 3 3 3 3 3 4 5 6 7 7 7 7 7 8 8 9 10 11 13 15 17 18 20 20 20 20 22 21 19 20 21 21 21 21 22 24 27 28 28 27 24 20 18 17 17 18 19 19 17
16 16 16 17 16 16 15 14 13 12 11 11 11 10 10 11 11 10 9 8 9 10 10 11 10 9 9 8 7 6 6 5 5 4 3 3 3 3 2 3 4 5 6 6 7 7 7 8 8 9 10 10 11 13 13 14 16 19 22 22 22 23 24 22 19 19 19 20 21 22 24 27 27 26 25 22 19 18 17 17 16 16 16 15 14
17 17 16 16 16 17 16 14 13 12 11 10 9 9 11 13 12 11 10 10 11 11 11 12 11 10 9 8 7 6 6 5 4 4 3 3 3 2 2 3 4 5 5 6 7 7 8 8 9 9 10 12 13 13 13 11 13 17 21 21 22 24 24 21 19 19 19 20 22 24 25 25 23 22 21 19 18 17 17 16 15 14 14 13 13
17 17 17 17 17 17 16 16 14 13 12 10 9 9 12 14 13 12 12 12 12 12 12 11 10 9 8 6 5 5 5 5 5 4 3 3 3 3 3 4 5 5 5 6 8 8 9 9 10 10 11 12 13 14 12 10 13 17 19 20 21 22 21 19 19 19 19 20 21 22 21 19 18 17 17 17 17 18 17 17 15 13 13 13 13
17 17 18 18 17 17 17 17 16 14 12 12 11 11 12 13 13 12 12 12 12 12 12 10 9 8 7 5 5 4 4 4 4 3 3 3 4 4 4 4 5 5 6 7 8 9 10 10 10 11 12 13 14 13 11 11 15 18 19 19 20 19 18 18 18 17 17 18 18 17 16 15 15 16 16 16 17 17 17 16 14 12 12 12 12
17 17 17 17 17 18 17 17 16 15 14 14 14 14 13 13 12 12 12 12 11 10 10 9 8 7 6 5 5 4 3 3 5 5 5 5 5 5 5 5 6 7 8 9 10 10 11 11 12 13 13 13 14 12 11 14 19 22 21 21 20 18 18 18 17 17 19 18 16 15 16 14 13 14 14 14 15 15 15 15 14 13 12 12 12
16 16 16 16 18 18 17 17 17 16 16 16 16 15 13 12 11 11 11 11 10 9 9 8 7 6 5 4 4 4 4 4 4 4 4 4 5 6 6 5 5 7 8 9 10 11 11 12 14 15 14 13 13 13 14 18 22 22 21 21 21 20 19 19 18 18 19 18 16 16 16 14 13 14 14 14 14 15 15 15 15 14 14 14 14
16 16 17 18 18 18 18 19 18 18 18 17 16 14 12 12 11 11 10 10 10 8 7 7 6 5 5 3 3 4 5 4 4 4 4 3 3 5 6 5 5 7 9 9 8 8 11 13 14 14 13 13 15 16 19 21 20 20 19 20 20 19 18 17 17 17 17 17 16 15 14 14 14 15 15 15 15 16 16 16 15 15 16 15 15
18 18 19 19 18 19 20 20 19 18 17 16 15 14 12 12 11 10 11 10 9 7 6 6 5 6 5 4 4 4 5 4 4 5 5 3 2 3 3 3 4 7 8 7 7 8 11 13 13 14 14 14 16 18 19 19 19 19 18 17 17 16 15 15 16 16 15 14 13 13 13 14 14 15 15 15 16 17 17 17 16 16 16 16 16
Wind_Direction
199 198 200 201 204 207 206 205 207 204 201 210 217 215 215 217 220 221 217 217 213 196 184 188 194 194 198 209 211 223 235 241 253 264 271 274 273 275 278 280 285 285 280 276 273 270 272 274 280 284 285 286 286 289 291 288 279 272 284 278 263 261 250 237 242 240 241 239 238 236 233 230 226 222 222 219 216 215 217 220 220 221 220 219 220
189 189 192 194 196 202 206 207 209 210 206 211 221 221 216 217 220 223 220 219 217 202 192 190 187 192 203 213 221 231 243 249 254 264 273 273 269 270 274 279 280 277 273 265 260 263 263 264 271 272 275 278 278 289 293 285 277 270 272 265 252 263 253 222 221 225 239 247 244 234 229 233 227 221 223 223 220 217 217 220 220 221 222 220 220
194 189 187 188 189 192 202 211 217 223 218 214 222 224 220 220 221 225 222 219 215 204 201 198 191 198 208 218 234 242 247 253 256 263 269 268 266 271 278 278 274 271 269 260 259 265 260 258 265 268 274 272 275 300 295 284 282 270 255 251 248 256 239 225 228 226 252 265 253 240 218 220 216 211 219 221 219 218 217 220 223 223 223 222 224
198 196 186 182 184 187 196 210 219 225 219 216 224 225 224 223 221 224 223 221 216 201 199 200 190 195 211 226 240 244 246 252 257 258 261 266 269 274 277 270 263 262 259 253 256 263 261 261 262 264 265 256 256 294 290 287 283 268 266 290 283 267 246 223 225 228 252 265 264 278 263 230 208 183 199 211 213 216 221 222 225 226 223 221 224
198 197 188 181 184 187 191 200 213 219 212 215 227 228 228 225 219 219 219 219 215 203 198 193 184 192 207 221 239 247 246 249 254 255 260 268 270 268 263 258 258 257 253 254 256 257 260 258 251 247 246 242 224 223 253 273 268 270 28 48 37 320 304 239 211 227 254 262 269 298 292 266 6 142 175 205 213 217 223 223 225 225 221 220 223
199 196 190 185 184 183 186 190 204 215 208 213 229 233 233 231 223 218 213 213 211 203 197 188 186 198 201 198 219 232 231 233 236 245 260 269 271 269 265 260 258 258 255 256 254 252 258 253 236 229 225 228 215 199 215 236 249 287 28 34 33 6 334 286 215 184 217 250 252 261 249 239 303 278 211 221 213 220 231 225 222 224 221 222 226
199 196 187 185 184 181 184 187 199 211 203 209 227 233 232 230 222 214 208 210 209 202 195 189 188 194 195 201 214 218 221 228 238 252 267 271 271 268 266 263 263 267 260 250 248 248 253 237 212 210 209 212 204 194 220 245 267 349 358 350 351 330 313 310 314 182 193 239 245 250 248 245 262 267 261 260 220 224 235 226 219 221 224 228 231
197 194 182 184 185 178 182 185 195 209 196 198 216 226 228 225 216 208 201 201 201 198 196 195 190 186 189 200 211 219 228 240 254 261 264 264 262 258 261 263 261 260 253 251 248 239 235 217 196 195 196 196 198 212 259 288 317 353 346 330 319 295 298 313 321 315 290 255 225 235 249 247 247 242 247 263 264 251 236 227 228 231 234 236 234
196 188 178 181 176 167 176 172 166 186 182 183 204 220 222 214 203 200 198 192 188 189 192 193 189 184 184 190 200 218 233 244 252 257 256 255 257 255 261 265 256 236 234 245 244 223 213 208 197 192 187 191 216 245 280 294 315 325 305 301 301 293 292 302 307 308 311 296 256 252 258 259 255 241 240 248 260 269 252 223 228 237 246 248 240
194 181 166 167 161 155 160 149 147 163 162 163 184 209 203 188 184 191 193 184 176 177 184 185 184 180 176 180 189 199 214 230 241 247 241 240 245 245 249 256 253 232 213 218 223 213 205 204 199 195 189 204 247 277 272 274 294 299 301 312 312 306 300 297 300 304 309 304 289 274 263 261 256 248 245 242 249 262 267 249 219 218 245 253 241
186 168 147 150 150 142 136 140 150 154 148 149 157 178 186 173 175 180 175 166 162 164 171 174 173 167 161 168 181 187 199 214 223 224 222 226 238 242 232 227 228 218 202 200 205 202 200 201 199 203 219 235 264 289 288 299 309 308 314 315 304 309 311 306 303 299 297 292 284 272 267 269 266 262 259 254 255 259 268 272 243 224 246 250 235
176 158 143 144 145 137 135 143 149 150 150 148 144 156 174 168 167 165 154 153 151 152 159 163 158 148 147 161 168 180 198 207 207 196 200 218 225 233 229 216 209 207 202 195 195 197 198 202 205 216 232 244 270 296 313 321 318 316 318 310 303 314 315 309 304 300 298 291 282 275 273 276 278 278 275 273 275 278 282 285 278 268 264 261 249
169 156 144 143 143 142 143 144 146 148 148 143 139 151 163 160 163 161 152 154 151 144 147 152 147 136 143 153 144 161 176 166 186 190 192 200 179 170 204 204 196 205 203 193 194 197 199 207 220 232 238 248 266 291 314 319 319 319 317 312 313 319 315 311 308 305 305 302 297 294 286 281 280 280 284 285 281 282 283 283 286 286 278 273 268
163 154 146 141 139 140 141 140 142 144 142 141 141 149 156 155 160 159 151 153 152 139 136 140 140 140 144 139 137 156 156 151 172 173 151 161 172 185 195 186 185 192 175 164 177 194 206 211 233 249 252 253 260 280 304 318 326 318 315 316 317 322 320 313 308 306 306 304 303 303 297 290 285 282 283 282 280 282 279 278 284 284 280 280 277
155 149 142 137 133 132 134 137 140 139 139 141 142 150 160 156 155 157 155 156 152 141 135 131 131 139 141 139 145 149 146 157 156 127 137 168 184 185 183 198 193 143 122 133 151 190 215 202 237 262 273 266 275 305 306 312 323 311 312 316 313 320 322 313 311 308 305 304 302 302 300 295 290 287 285 282 284 286 282 286 292 287 281 282 279
152 145 137 132 128 126 131 137 137 137 138 140 144 155 159 152 150 156 157 155 148 138 137 135 132 127 126 136 144 135 137 149 138 134 159 182 180 166 194 236 207 124 137 147 149 167 173 220 254 261 324 287 291 299 292 298 308 302 303 303 300 307 313 312 313 307 303 304 299 296 296 295 294 294 292 288 286 285 284 286 285 279 279 280 279
149 141 137 130 126 126 132 136 135 137 139 140 146 154 155 149 147 151 153 153 154 146 141 142 139 131 132 150 159 148 151 154 151 158 169 167 169 197 217 221 139 164 166 144 136 114 60 321 303 305 283 279 281 276 282 291 295 297 300 295 294 301 304 301 302 302 304 303 299 298 299 297 294 289 287 287 285 282 281 281 278 277 280 281 281
140 135 134 128 129 132 136 139 136 136 138 139 146 149 149 148 146 150 153 152 154 152 149 153 152 148 152 162 164 158 158 159 160 166 167 165 185 193 175 149 145 148 125 110 129 131 131 299 303 301 289 286 289 286 290 296 296 297 298 289 284 283 288 292 294 294 295 297 300 302 299 296 294 294 294 294 290 282 278 277 278 278 277 276 282
140 137 134 131 135 137 140 142 134 133 137 139 143 144 142 142 141 144 144 142 147 151 153 158 157 153 153 154 157 156 155 158 160 163 169 174 174 152 147 150 142 133 121 118 301 329 327 313 298 291 291 289 289 290 295 301 301 298 296 292 287 274 279 288 290 289 288 290 293 294 294 295 296 296 293 286 280 276 275 278 280 281 281 282 284
146 142 137 135 139 139 140 140 132 135 141 139 141 142 139 138 137 139 138 140 149 152 151 151 147 145 146 148 150 150 150 152 151 156 162 156 150 144 146 144 139 135 134 165 297 320 321 314 305 300 303 303 304 306 306 305 303 300 299 299 301 300 294 291 290 292 292 289 289 291 294 295 295 292 286 282 279 277 276 277 277 279 280 280 281
149 144 142 140 140 139 138 135 132 136 139 138 140 138 135 136 137 140 144 148 154 153 147 144 142 143 145 145 146 146 147 146 142 146 145 138 143 150 147 142 144 138 132 274 294 301 301 304 308 310 312 313 312 309 308 309 306 307 307 300 299 301 299 295 294 296 295 292 292 294 294 293 292 289 287 287 285 283 282 278 278 278 277 277 278
151 150 148 143 142 141 136 132 131 135 139 140 138 134 132 134 136 139 143 147 148 146 143 141 140 142 142 141 138 137 138 138 139 149 154 149 150 154 155 155 160 184 248 282 298 310 320 318 312 312 313 313 313 311 312 315 314 314 311 305 304 306 302 299 297 296 296 296 296 295 292 292 291 288 287 288 287 285 283 282 282 282 282 282 280
152 149 145 141 140 138 133 130 132 137 142 141 133 131 132 133 135 138 139 140 140 139 139 138 137 137 135 131 129 130 135 140 152 163 162 152 144 151 167 175 193 239 259 285 310 320 325 322 313 313 315 315 318 319 319 318 316 315 313 311 311 310 306 302 300 300 301 301 301 297 292 291 291 291 290 290 288 285 282 283 282 281 281 282 281
151 143 136 137 136 136 134 133 136 141 143 138 132 133 135 136 139 139 138 139 139 138 136 133 132 130 128 129 131 137 143 149 158 160 152 143 139 150 171 190 231 276 301 319 321 320 321 319 316 318 321 322 323 322 321 320 317 316 315 314 314 311 308 306 304 304 304 303 301 297 295 295 295 294 291 287 283 280 280 282 281 281 280 278 278
149 141 136 138 137 137 138 137 141 143 142 137 133 136 139 141 144 143 141 141 139 136 133 132 132 131 133 139 142 147 151 153 159 159 154 155 155 161 182 219 259 292 307 311 312 311 317 320 322 325 326 324 324 322 323 322 319 319 318 316 316 313 310 307 304 304 303 302 299 296 296 298 296 293 291 289 287 286 286 285 282 283 283 282 281
152 147 143 141 139 139 139 141 146 144 139 137 136 139 142 144 146 144 142 139 137 136 136 139 141 141 143 147 147 151 155 155 161 165 165 171 183 191 204 244 283 299 300 304 306 308 321 327 326 327 326 324 327 326 325 325 325 325 323 320 317 314 310 307 306 305 303 300 298 296 296 297 296 294 294 294 294 292 290 287 285 285 285 284 283
154 155 150 145 147 145 144 149 150 143 139 140 143 145 147 148 148 145 140 137 138 141 144 148 149 147 150 155 155 158 160 159 165 172 172 180 192 202 223 267 295 303 301 307 311 312 323 330 331 332 331 332 333 329 330 336 337 332 327 322 318 315 312 310 308 307 305 303 301 299 298 297 295 294 295 297 298 296 292 289 288 288 287 286 284
156 160 158 154 154 152 151 153 149 145 145 147 148 149 152 155 151 146 143 142 145 150 152 153 152 152 159 166 167 169 174 177 179 177 180 190 197 207 240 281 296 300 304 318 327 329 332 334 336 336 335 334 332 335 346 351 344 336 330 323 318 316 314 312 311 310 309 308 307 303 301 298 298 300 301 300 299 298 296 293 292 293 292 289 286
162 165 165 162 159 156 155 153 149 148 149 149 152 154 157 159 154 149 150 152 155 158 157 157 161 166 172 179 184 188 193 196 197 197 204 210 208 217 255 296 307 309 320 341 341 335 332 334 336 335 333 334 335 345 356 354 346 339 331 324 320 316 314 312 311 310 308 308 307 304 302 300 301 304 302 299 297 296 296 295 296 299 298 296 293
169 168 168 167 163 159 157 154 151 150 150 151 155 158 161 161 158 157 160 162 163 163 164 169 176 182 187 194 201 206 209 209 212 221 228 221 216 237 329 350 344 344 342 339 335 329 326 331 334 331 330 333 334 343 350 348 345 338 330 325 320 313 310 308 307 307 307 308 307 305 303 301 300 299 296 297 297 295 294 295 297 301 301 301 299
170 166 165 166 165 162 160 157 154 152 153 155 158 162 164 161 161 164 166 166 166 168 173 181 188 195 200 206 211 212 213 216 221 225 217 192 180 160 106 25 342 332 317 322 323 318 319 324 325 325 329 328 325 330 335 333 330 326 324 322 317 312 308 306 306 307 308 308 309 307 305 303 301 299 298 300 300 296 295 295 295 296 296 294 293
166 163 163 166 165 164 164 161 156 155 157 160 162 164 165 164 164 167 165 165 168 173 180 188 196 202 205 208 211 210 214 222 222 209 187 167 159 143 102 41 333 312 309 314 312 307 311 314 315 319 323 323 323 324 321 317 316 317 319 320 316 310 307 306 307 308 308 309 309 308 306 303 301 299 297 297 297 296 295 294 292 291 289 285 283
163 161 163 166 166 164 164 161 159 161 163 165 166 167 167 166 164 162 162 166 173 178 184 194 201 204 206 205 204 208 218 221 209 189 181 171 153 142 126 47 334 315 304 301 298 295 299 307 318 320 321 322 320 316 310 309 314 318 321 321 314 308 305 307 309 308 307 306 305 303 301 299 297 296 293 292 294 295 294 293 292 290 288 284 282
160 162 164 166 164 162 161 161 162 165 165 167 170 170 167 162 157 159 164 170 177 183 192 201 205 203 201 199 203 214 217 207 194 185 176 164 159 177 214 297 314 306 289 282 288 293 299 310 320 320 319 319 317 310 306 311 319 322 323 320 312 305 302 303 305 304 302 301 299 298 296 295 294 294 292 291 293 295 296 296 295 293 291 289 286
161 164 164 164 162 160 160 161 163 164 164 168 173 170 162 156 157 164 170 174 181 191 200 205 203 197 198 201 206 211 203 190 191 186 170 173 214 239 266 295 301 286 264 271 289 300 309 315 319 319 318 318 318 314 316 324 328 325 321 318 310 304 301 300 300 300 300 298 296 294 293 293 293 293 291 291 292 293 294 295 295 294 292 290 287
163 164 162 162 164 162 159 159 160 162 165 170 173 166 157 156 161 168 172 177 187 197 203 203 198 195 198 201 201 195 191 201 213 203 194 217 239 253 278 291 284 257 251 272 288 303 313 317 320 320 320 322 323 322 328 336 332 321 317 315 309 305 303 301 301 301 300 297 294 293 292 291 292 293 293 293 292 290 292 295 296 295 293 289 286
161 160 159 161 163 160 157 157 158 162 167 169 167 160 155 157 163 168 173 182 196 203 203 198 195 194 194 198 199 190 192 209 220 216 222 242 253 260 272 277 262 246 261 278 294 307 314 318 321 324 327 327 326 325 330 332 327 320 320 317 311 307 304 301 301 301 298 296 294 292 292 292 293 295 296 296 294 293 296 298 297 295 293 290 287
152 151 153 158 160 157 156 156 157 160 164 165 161 158 157 160 164 169 177 191 203 203 194 192 194 194 195 206 214 202 195 202 212 222 237 252 258 259 260 245 230 257 276 290 305 312 318 324 327 331 333 327 322 324 327 325 323 322 321 318 312 308 305 302 302 301 299 299 296 294 293 293 294 297 298 297 296 298 301 300 298 297 295 291 290
142 145 148 152 152 151 151 153 154 157 161 162 159 159 162 163 164 172 185 197 201 190 181 188 194 195 201 210 209 198 194 204 225 238 243 241 238 232 155 159 248 283 296 309 318 321 325 330 330 330 330 324 322 325 323 322 324 323 321 320 315 308 306 305 305 304 303 301 299 298 298 297 299 304 306 304 302 303 301 297 296 296 293 289 290
138 141 141 141 142 144 147 150 152 154 157 158 158 162 167 164 163 175 189 193 185 170 169 179 183 187 194 197 199 202 207 216 222 216 197 142 106 97 88 314 302 312 320 327 330 327 326 327 326 326 325 322 323 324 320 322 326 326 327 328 323 313 311 310 309 308 305 303 304 305 304 305 308 309 308 306 306 305 302 297 293 291 287 286 290
131 132 133 136 141 144 145 145 146 149 153 157 163 168 167 161 163 175 179 166 151 149 154 164 172 176 180 188 201 212 208 184 162 135 111 97 88 67 7 343 337 336 336 333 329 325 323 322 322 324 324 324 325 323 322 325 328 330 332 333 329 320 316 314 311 307 305 306 309 308 307 308 309 305 303 303 303 302 300 297 290 282 280 283 288
124 128 132 136 138 138 137 136 139 146 152 158 165 166 159 156 160 159 147 136 136 141 147 155 161 163 170 177 178 167 140 125 115 107 104 99 74 38 22 11 356 344 332 324 321 322 320 320 321 323 324 326 327 324 322 324 328 331 332 332 329 323 320 318 312 306 305 307 308 307 306 305 303 300 300 302 304 304 301 295 288 283 283 287 289
125 130 132 133 134 133 134 135 139 146 152 157 162 160 151 147 144 135 128 130 137 140 142 143 144 145 146 144 134 125 118 112 109 105 98 83 62 44 35 18 352 333 326 323 322 321 319 320 323 325 325 325 326 324 320 320 326 332 334 334 332 327 325 322 312 305 306 307 307 306 305 303 302 303 304 306 311 315 309 300 296 294 293 293 291
127 129 131 131 131 131 132 134 138 143 149 155 160 155 142 134 129 124 124 127 130 132 132 130 129 130 128 123 121 119 113 108 106 99 87 76 63 44 24 4 342 329 326 326 323 323 325 325 324 323 324 325 325 323 319 317 322 330 334 335 333 328 326 323 315 308 306 305 304 305 305 306 309 312 313 314 318 320 315 308 306 305 300 293 285
123 125 128 128 128 129 130 131 135 138 142 148 153 145 133 127 123 121 122 123 125 127 126 124 123 122 120 120 120 114 107 104 100 92 84 73 49 22 7 352 335 325 328 331 329 328 327 324 322 322 322 323 324 323 320 320 324 327 329 329 327 325 323 321 315 307 303 303 305 307 308 310 314 318 318 316 315 314 311 307 306 306 299 287 277
121 124 127 127 127 127 129 130 132 134 136 139 139 131 126 125 124 123 123 123 123 122 119 118 119 118 117 117 114 109 108 105 96 85 80 63 25 359 357 348 333 329 336 335 330 329 327 325 324 323 321 323 326 323 320 323 328 328 326 324 323 322 320 317 313 308 306 308 309 308 308 310 315 319 318 312 308 307 305 300 297 293 286 280 276
123 127 130 131 129 129 131 131 131 132 133 132 129 124 123 126 127 125 122 121 120 118 116 114 113 111 105 96 87 82 86 91 81 54 35 33 14 359 357 349 339 341 343 336 330 329 328 327 327 325 323 324 324 323 323 329 330 327 323 322 322 321 319 318 317 313 310 311 308 303 304 308 313 317 317 312 307 305 304 302 297 291 285 283 280
127 131 133 133 132 132 132 130 128 129 129 127 125 125 125 126 124 121 119 116 112 110 109 107 102 94 85 79 77 69 52 51 48 29 13 16 16 8 360 353 355 353 344 337 336 333 331 332 331 328 325 322 320 324 331 331 325 320 318 317 318 319 318 317 315 311 310 309 303 292 290 297 306 312 313 311 307 304 302 302 302 300 297 292 281
129 131 132 131 130 130 130 127 125 126 125 125 126 125 124 122 119 116 114 109 103 102 100 96 90 85 78 70 68 63 45 32 37 40 33 27 17 4 350 345 360 360 344 336 334 331 333 335 330 326 327 324 321 322 323 320 318 317 315 313 313 316 317 313 313 313 309 302 295 291 294 302 310 313 312 311 309 306 304 302 303 304 301 296 290
128 130 131 131 129 129 128 125 125 126 126 127 126 123 121 120 116 113 109 105 103 104 100 94 87 79 70 60 60 64 57 40 33 38 38 28 10 1 353 345 345 344 336 333 332 331 333 331 322 320 324 321 315 313 314 316 319 320 318 315 315 318 319 316 319 321 312 299 295 301 310 317 318 316 315 312 311 310 307 306 307 306 302 297 294
131 132 132 131 130 129 127 126 126 127 127 125 123 121 120 117 113 111 110 107 106 103 98 94 86 72 59 51 58 71 69 54 37 26 18 7 352 355 360 348 335 330 328 328 330 332 335 329 316 312 316 313 309 312 316 319 322 323 322 321 323 325 326 329 329 320 305 304 313 317 317 320 320 318 317 316 315 313 309 306 306 304 302 302 299
Height
780 784 787 789 792 795 797 799 800 801 803 805 806 807 807 809 810 811 812 813 815 817 820 821 822 823 823 824 825 825 825 826 827 828 829 829 830 831 831 831 831 832 833 833 832 832 832 832 832 831 830 829 829 829 829 829 828 828 827 827 827 826 826 825 824 824 824 823 823 823 823 823 823 823 824 824 825 825 826 827 828 829 829 830 831
780 783 785 787 790 793 796 797 797 798 799 802 803 804 805 806 808 808 809 810 812 815 818 819 820 821 821 822 823 824 824 824 825 826 827 828 829 829 830 830 830 830 831 831 831 831 831 831 831 830 829 828 828 827 828 828 827 827 827 826 826 826 825 824 824 824 823 822 822 822 822 823 823 822 823 824 824 824 825 826 826 827 828 828 829
780 782 783 786 788 790 794 794 795 795 797 800 801 802 803 804 805 806 807 807 809 813 816 818 819 819 820 820 821 822 823 823 824 824 826 827 827 828 829 829 829 829 830 830 830 830 830 830 830 829 829 828 827 827 828 828 827 826 826 826 825 825 824 824 823 823 823 822 821 821 821 821 822 821 822 823 822 823 823 824 825 825 826 826 826
781 780 780 783 786 788 790 792 792 793 796 798 799 800 801 802 803 804 804 805 807 811 813 815 817 819 819 819 820 821 822 822 823 823 824 826 826 828 829 829 829 829 830 830 830 830 830 829 829 829 828 827 826 827 828 828 827 826 825 825 824 824 823 823 823 823 822 822 820 819 817 818 821 819 819 821 820 821 822 822 823 823 824 824 824
778 779 779 781 783 784 786 789 791 792 794 796 797 798 799 800 802 802 803 804 806 808 811 813 815 817 817 817 819 820 821 821 821 822 823 825 826 827 829 830 829 829 829 830 830 830 829 829 828 828 828 827 827 828 828 828 827 826 825 824 824 823 823 823 823 822 821 820 819 819 819 821 821 817 818 820 819 819 820 820 821 821 821 821 821
774 775 777 778 780 782 784 786 788 790 793 795 795 797 798 799 800 801 802 803 805 807 809 812 814 815 816 816 818 820 821 821 821 822 823 825 826 827 829 829 828 829 829 829 830 830 829 828 827 828 828 828 827 828 828 828 828 826 825 825 824 823 823 822 821 821 821 820 819 819 820 821 820 817 818 820 819 818 819 819 819 819 819 819 818
772 773 774 776 778 780 782 784 787 789 792 794 795 795 797 798 799 800 801 802 804 805 807 810 812 814 815 815 818 821 820 820 820 822 823 825 826 827 828 828 827 828 829 829 829 829 828 827 827 827 828 828 827 827 828 827 827 826 825 824 824 823 823 822 820 820 820 819 818 818 818 818 819 818 818 818 819 818 817 817 817 817 817 816 816
771 773 773 774 776 778 781 783 785 788 791 793 795 795 795 797 798 799 800 801 803 805 806 809 811 813 815 816 818 820 819 819 819 821 823 824 825 826 826 826 826 827 828 828 829 829 828 827 827 827 827 828 827 827 827 827 826 826 825 825 824 824 823 822 820 819 818 818 818 817 817 817 818 818 818 817 817 817 816 816 816 815 815 814 813
768 771 772 773 775 778 780 782 785 788 790 793 794 795 795 796 798 799 800 801 803 805 807 809 811 812 814 816 817 818 817 818 819 820 822 824 825 826 826 825 824 826 829 828 828 829 828 828 828 827 827 827 827 827 827 827 826 826 826 825 825 824 823 822 820 819 817 817 817 816 816 817 817 817 818 817 815 816 815 814 814 814 812 811 811
766 767 770 772 775 778 780 783 786 789 790 793 794 794 795 796 798 799 800 801 804 807 809 810 811 811 813 815 816 816 817 818 819 819 822 824 825 826 826 825 824 827 830 829 828 828 828 828 828 828 828 827 827 827 827 827 826 826 825 825 825 824 823 821 820 819 818 817 816 816 816 816 816 816 816 816 815 815 813 811 812 811 811 810 809
765 766 769 773 775 778 781 784 787 790 791 793 794 794 795 796 797 799 800 802 805 808 810 811 811 811 812 814 815 816 817 818 818 819 822 824 825 825 826 827 828 829 829 829 828 828 828 828 828 828 828 828 827 827 826 826 826 825 825 825 825 824 823 822 821 820 819 818 817 816 815 814 814 814 814 815 814 814 813 810 809 809 809 808 807
764 767 770 773 775 778 783 786 787 790 791 792 794 795 796 796 798 799 801 803 805 808 810 811 811 811 812 813 814 815 816 817 818 820 823 824 824 825 827 828 829 829 828 828 828 828 828 828 828 828 828 828 828 827 827 827 826 826 825 825 824 824 823 822 821 820 819 818 817 815 815 813 813 813 812 813 813 812 812 810 806 807 807 805 805
763 767 771 772 775 778 782 786 787 789 791 792 794 795 796 797 798 799 801 802 804 807 809 810 811 812 812 813 814 815 816 817 819 821 823 824 824 825 827 828 828 827 826 826 827 828 828 828 828 828 828 828 828 828 827 827 827 826 825 824 823 823 823 822 821 820 819 819 817 816 814 813 813 812 812 812 812 811 811 809 806 805 805 803 802
763 766 770 772 775 778 782 786 787 789 791 792 794 795 796 797 798 799 801 802 804 806 808 809 811 812 813 814 815 816 817 818 820 821 822 822 823 824 825 825 825 825 825 825 826 826 827 827 828 828 828 828 828 828 828 827 827 826 825 825 824 823 823 822 821 820 820 819 818 816 815 814 813 812 813 812 811 811 810 808 806 805 804 801 800
764 767 770 772 774 778 782 786 788 789 791 793 794 796 796 797 798 799 800 802 803 806 808 809 810 811 813 814 815 816 817 819 821 821 821 822 823 824 825 824 824 824 825 826 826 826 826 827 827 827 828 828 828 828 827 827 827 826 825 825 824 824 823 822 821 820 820 819 818 817 816 814 813 812 812 811 811 811 810 808 807 807 807 803 800
765 768 771 772 775 779 782 786 788 789 791 793 794 796 796 797 799 799 800 801 803 805 807 809 810 811 812 813 815 817 818 820 822 822 822 823 824 824 825 824 824 824 825 826 826 826 826 827 827 827 828 828 828 828 827 827 827 826 825 825 824 823 823 822 821 820 819 819 818 817 816 815 813 812 812 811 811 811 811 810 808 808 808 807 803
765 769 772 773 776 780 783 785 787 789 791 793 794 796 796 798 799 801 802 803 805 806 807 809 810 812 813 815 817 818 820 822 823 823 824 824 825 825 825 824 824 825 825 826 826 827 827 827 827 827 827 828 827 827 827 826 827 825 824 824 823 822 822 822 821 820 819 818 817 816 816 814 813 813 812 811 811 811 811 810 808 806 807 807 806
767 769 772 774 777 780 783 785 787 789 792 793 795 796 797 798 800 802 803 805 807 807 809 811 812 814 816 818 820 820 821 822 823 824 824 824 825 824 825 825 825 825 825 826 827 827 827 827 827 827 827 827 827 827 826 826 826 825 824 823 822 822 822 821 821 820 819 818 817 816 816 814 813 812 812 811 811 811 810 808 807 806 805 805 804
768 770 773 774 777 781 783 785 787 789 792 793 795 796 797 799 801 802 804 806 808 808 810 812 813 815 817 818 820 821 821 823 823 823 823 824 824 824 825 825 825 826 827 827 827 827 827 827 827 827 827 827 826 826 826 826 825 824 823 822 821 821 821 821 820 819 818 818 817 817 816 814 813 812 812 811 810 809 808 807 806 805 805 804 803
769 771 773 774 777 780 782 785 787 789 792 793 795 796 797 800 801 803 806 807 808 809 810 812 813 815 816 818 819 820 821 822 822 823 823 823 824 824 825 825 825 826 827 827 828 827 827 827 827 826 826 826 826 825 825 825 824 824 823 821 820 820 820 820 819 818 818 818 816 816 815 814 813 812 810 809 807 806 805 805 804 804 803 803 803
768 770 772 774 777 780 782 785 787 789 792 793 795 796 798 800 802 804 806 807 809 809 810 812 813 814 816 817 819 820 821 822 822 823 823 823 824 824 825 825 826 826 827 827 827 827 827 827 826 826 826 826 825 825 825 824 823 823 822 821 820 820 820 819 818 818 817 816 815 815 814 813 812 811 809 807 805 804 803 802 802 802 801 801 801
768 769 771 773 776 779 781 784 787 789 791 793 795 796 798 800 802 804 805 806 808 809 810 812 813 814 816 817 819 820 821 822 822 823 823 824 824 825 825 826 826 827 827 827 827 826 827 827 826 826 826 825 825 825 824 823 823 822 821 821 820 819 819 818 817 816 815 815 814 814 813 812 810 809 808 806 804 803 802 801 801 800 799 799 798
766 768 771 773 776 779 782 785 787 790 792 794 795 797 799 801 802 804 805 806 808 809 810 812 813 815 816 818 819 820 821 822 823 823 823 823 824 825 826 826 826 826 826 826 827 826 826 826 826 826 825 825 824 824 824 823 822 822 821 820 819 818 818 817 816 815 814 814 813 813 812 810 809 808 807 806 804 803 801 800 800 799 798 798 797
767 769 771 775 778 780 782 785 788 790 792 794 796 798 800 801 803 804 805 806 808 809 811 813 814 816 817 818 820 820 821 822 822 823 823 824 824 825 826 826 826 826 825 826 826 826 826 826 825 825 824 824 824 823 823 822 821 821 820 820 819 818 817 816 815 814 813 813 812 811 810 809 808 807 806 805 803 801 800 799 798 798 797 796 795
769 772 774 776 778 780 783 785 788 791 793 794 797 798 800 801 803 804 805 807 808 810 812 814 815 816 818 819 819 820 821 822 822 823 823 824 824 825 825 825 825 825 825 825 825 825 825 825 825 824 824 824 823 823 822 822 821 820 820 819 818 818 817 816 815 814 813 813 812 811 809 808 808 806 805 803 802 800 799 798 797 796 796 795 793
771 773 776 778 779 781 783 786 788 791 793 795 797 798 800 801 802 804 806 807 809 811 813 814 815 816 817 819 819 820 821 821 822 822 823 824 824 824 825 825 825 825 825 825 825 825 825 825 824 824 824 823 823 822 822 821 821 820 820 819 818 817 817 816 815 814 813 812 811 810 809 808 807 805 804 803 801 800 799 798 797 796 795 794 793
771 773 776 778 780 782 783 785 788 790 793 796 797 798 800 801 803 804 806 808 810 811 812 814 815 816 817 818 819 820 820 821 822 822 823 823 823 824 824 825 825 825 825 825 825 825 825 824 824 823 823 823 822 822 821 821 820 820 819 818 818 817 816 815 814 813 812 811 810 809 808 807 806 805 804 803 801 800 799 798 797 795 794 793 792
771 774 776 778 780 781 783 785 788 790 793 795 796 798 800 801 803 805 807 808 810 811 812 814 815 816 817 817 818 819 820 821 821 822 822 823 823 824 824 824 825 825 825 825 825 825 824 824 823 823 822 822 822 821 821 821 820 820 819 818 817 816 815 814 813 812 811 810 809 808 807 806 805 804 803 802 801 800 799 797 796 795 794 792 791
772 774 775 777 779 781 782 786 788 790 793 794 796 798 799 801 803 805 807 808 809 811 812 813 814 815 816 817 818 819 820 821 821 822 822 823 823 824 824 825 825 825 825 825 825 824 824 823 823 822 822 822 821 820 821 821 820 819 819 817 816 815 814 813 812 811 810 809 808 807 806 805 804 803 802 801 800 799 798 797 795 794 793 791 789
769 771 773 775 778 779 782 785 788 790 792 794 796 797 799 801 803 805 807 807 809 811 812 813 814 815 816 817 817 819 819 820 821 822 822 823 824 824 824 825 825 825 824 824 824 824 823 823 822 822 822 821 820 820 820 820 820 819 818 817 816 814 813 812 811 810 808 807 807 806 804 803 802 801 800 799 799 798 797 795 794 793 792 790 788
767 770 772 774 776 779 782 784 787 789 791 793 795 796 798 800 802 804 805 807 809 810 811 813 814 814 815 816 817 818 819 820 820 821 822 823 823 824 824 824 824 824 824 823 823 823 822 822 822 822 821 820 819 819 819 819 819 818 817 816 815 813 812 811 809 808 807 806 805 804 802 801 800 799 799 798 797 796 794 794 793 791 790 789 787
766 769 771 773 775 777 780 783 786 789 791 793 794 796 797 799 801 803 805 807 809 809 811 812 813 814 815 816 817 818 819 819 820 821 822 822 822 823 823 824 824 824 824 823 822 822 822 822 822 821 821 819 818 818 818 818 818 817 816 815 814 812 811 809 808 807 806 804 803 802 801 800 799 798 797 796 794 793 792 792 791 789 788 787 786
765 768 770 772 773 776 779 782 785 787 790 792 793 794 796 798 800 803 804 806 808 809 810 811 812 813 814 815 817 817 818 819 820 821 821 821 822 822 822 822 823 822 823 822 822 822 821 821 821 820 820 819 818 817 817 817 816 816 815 814 813 811 809 808 807 805 805 803 802 801 800 798 797 796 795 794 792 791 790 789 788 786 785 784 782
764 767 768 770 772 775 778 781 784 787 789 791 792 794 796 798 800 802 804 805 807 808 809 810 811 813 814 815 816 816 818 819 819 820 820 820 821 821 821 821 821 821 821 821 821 821 821 821 820 820 819 818 817 816 816 816 816 815 814 813 811 810 808 807 805 804 803 802 800 799 798 796 795 793 792 791 790 789 788 786 785 783 781 780 779
764 765 767 769 771 774 777 780 783 786 788 790 792 793 796 798 800 801 803 804 806 807 808 809 811 812 813 814 815 816 817 818 818 818 819 820 820 820 820 820 820 820 821 821 821 820 820 820 819 819 818 817 816 815 815 815 814 813 813 811 810 808 807 805 804 802 801 800 798 797 795 794 792 791 790 789 787 786 785 783 782 780 778 777 775
760 763 765 768 770 773 776 779 783 785 787 789 791 793 795 797 799 801 802 804 805 806 807 809 810 811 813 813 814 815 816 816 817 817 817 818 818 818 819 819 819 819 820 820 820 820 819 819 818 818 817 816 815 814 814 814 813 812 811 810 809 807 805 803 802 800 799 797 796 795 793 791 790 788 787 786 784 783 782 781 779 777 775 773 771
757 761 765 768 771 773 776 779 782 784 787 788 790 793 795 796 798 800 802 803 804 805 807 808 810 811 812 813 814 814 815 815 816 816 816 816 816 817 818 818 818 819 819 819 819 819 818 818 817 817 816 816 815 814 813 813 812 811 810 809 808 806 804 802 800 798 797 795 793 792 790 789 787 785 784 783 782 780 779 778 776 774 772 769 767
757 762 765 768 771 773 776 779 781 784 786 787 790 792 794 796 798 799 801 802 803 805 806 808 809 810 811 812 813 813 814 814 815 815 816 816 816 816 817 817 818 818 818 819 818 818 818 817 816 816 816 815 815 813 813 812 811 810 809 808 806 804 802 800 798 796 795 792 791 789 788 786 784 782 781 780 779 778 777 776 774 772 769 766 764
758 762 765 769 772 774 777 779 781 784 786 787 790 792 793 796 798 799 800 801 802 805 806 807 809 810 811 812 812 813 813 814 814 815 815 815 815 816 816 817 818 818 818 818 817 817 817 816 816 816 815 814 814 813 812 811 810 809 808 806 805 803 801 798 796 794 792 790 788 786 784 783 781 779 778 777 776 776 775 774 772 770 767 764 762
759 763 766 769 773 775 777 779 782 784 786 787 790 791 793 796 797 799 800 801 803 805 806 807 808 809 810 811 812 813 813 813 814 814 815 815 816 816 817 817 818 818 817 817 817 817 817 816 816 815 814 814 813 812 812 810 809 808 806 805 804 802 799 797 795 792 790 787 784 782 780 780 778 776 775 775 774 773 772 770 769 767 764 762 760
761 764 767 771 774 776 778 780 782 784 786 788 789 791 793 796 797 799 800 801 803 804 805 807 808 809 810 811 812 812 813 813 814 814 815 816 816 817 817 817 818 818 817 817 817 817 816 816 815 815 814 813 813 812 811 809 808 807 805 804 803 801 799 796 793 791 788 785 782 780 778 777 776 774 773 772 770 769 768 766 765 763 761 759 758
763 766 769 771 774 776 779 781 783 785 786 788 789 791 794 796 797 799 801 802 803 805 806 807 808 809 810 811 812 812 813 813 814 815 815 816 817 817 817 817 818 818 818 818 817 817 816 816 815 814 813 812 812 811 810 808 807 805 804 803 801 799 797 795 792 789 786 784 781 779 777 775 774 772 770 768 766 765 763 762 760 759 758 757 756
765 768 770 772 775 777 780 782 784 785 787 788 790 792 794 796 798 800 802 803 804 805 806 807 808 809 810 811 812 813 814 814 815 815 816 816 817 817 818 818 818 818 818 817 817 816 816 815 814 814 813 812 811 810 808 807 805 804 803 801 799 798 796 794 791 788 785 783 780 778 776 773 771 769 767 765 763 761 760 759 757 756 755 754 753
765 769 771 773 776 778 780 783 785 786 788 789 791 792 794 797 799 801 803 804 804 806 806 807 809 810 811 812 813 814 814 815 815 816 816 817 817 818 818 818 818 818 818 817 817 816 815 815 814 813 812 811 810 809 808 806 804 803 801 799 797 796 794 792 790 787 784 782 779 777 774 771 769 767 764 762 761 759 758 757 755 754 753 751 751
767 771 773 775 777 779 781 784 785 787 789 790 792 793 795 798 800 802 803 804 804 806 807 808 809 811 812 813 813 814 815 815 816 816 816 817 818 818 818 818 818 818 817 817 816 816 815 814 813 812 811 811 810 808 807 805 804 802 800 798 796 794 792 790 788 786 783 780 777 775 772 769 767 765 763 761 760 758 756 755 753 752 751 749 748
769 772 775 777 779 781 783 784 786 788 790 791 793 795 796 799 801 802 803 804 805 806 807 809 810 811 812 813 813 814 815 815 816 816 816 817 818 817 818 818 818 817 817 817 816 815 814 813 813 812 811 810 809 808 806 805 804 802 799 797 795 792 790 788 786 783 781 778 775 773 771 768 766 764 762 761 759 757 755 753 751 750 749 748 746
771 774 776 778 779 782 784 785 787 789 791 792 794 796 798 800 801 803 804 805 806 807 808 809 810 811 812 813 813 814 814 814 815 816 816 817 817 817 818 818 817 817 817 817 816 815 814 813 812 811 811 810 808 807 805 804 803 801 799 797 794 791 789 786 784 782 779 776 774 771 769 767 764 762 761 759 757 755 753 751 749 748 747 745 744
773 775 777 778 780 782 784 786 788 790 792 794 796 798 799 801 802 804 805 806 807 807 808 809 811 812 813 813 814 814 814 815 816 816 817 817 818 818 818 818 818 818 818 817 816 815 814 813 812 811 810 809 808 807 805 804 803 800 798 795 793 790 788 785 783 781 778 775 772 769 766 765 763 761 759 757 756 754 752 750 748 746 745 743 741
775 777 778 780 782 784 785 787 790 792 794 796 798 799 801 802 804 805 806 806 807 808 809 810 811 812 813 814 814 815 816 816 817 817 818 819 819 820 820 819 819 820 819 819 818 817 816 815 814 812 811 809 808 807 805 804 802 799 797 794 792 789 787 784 782 779 776 773 771 768 765 764 762 760 758 756 755 753 751 749 747 745 743 741 739
776 778 780 782 784 785 787 790 792 794 796 798 800 801 803 804 805 806 807 808 809 810 810 811 812 813 814 815 815 816 817 818 818 818 819 819 819 820 820 820 820 820 820 819 819 818 817 816 815 814 812 810 809 807 804 802 800 798 795 793 791 788 786 783 780 778 775 773 770 767 765 763 761 760 758 755 754 752 750 748 746 744 742 740 738
777 779 781 784 786 787 789 792 794 796 798 800 801 803 805 806 807 808 809 810 811 811 812 812 813 815 816 816 817 817 818 819 819 819 820 820 819 819 820 820 820 820 820 819 819 818 818 816 815 813 812 810 808 806 803 801 798 796 794 792 789 787 784 782 779 777 775 772 769 766 764 762 761 759 757 755 753 751 750 747 745 743 740 738 736